EW8829 Weather Reports


time (UTC)temp
C
wind
direction
speed
KPH
gust
KPH
rain 1hr
cm
rain 24hr
cm
rain mn
cm
humidity
%
barometer
mb
20260504202244 22 246 4.8 12.9 0.00 0.00 0.00 35 1004.2
20260504201741 22 146 6.4 12.9 0.00 0.00 0.00 35 1004.4
20260504201238 22 1 4.8 14.5 0.00 0.00 0.00 37 1004.1
20260504200736 21 221 6.4 17.7 0.00 0.00 0.00 36 1004.4
20260504200231 22 279 6.4 27.4 0.00 0.00 0.00 37 1004.7
20260504195728 22 258 19.3 20.9 0.00 0.00 0.00 35 1004.7
20260504195224 21 213 3.2 9.7 0.00 0.00 0.00 36 1004.5
20260504194722 21 298 3.2 12.9 0.00 0.00 0.00 38 1004.7
20260504194218 21 246 6.4 16.1 0.00 0.00 0.00 38 1005.0
20260504193714 20 265 4.8 17.7 0.00 0.00 0.00 38 1004.7
20260504193212 20 327 3.2 14.5 0.00 0.00 0.00 38 1004.9
20260504192710 20 226 4.8 14.5 0.00 0.00 0.00 39 1004.8
20260504192208 21 272 14.5 29.0 0.00 0.00 0.00 37 1004.9
20260504191706 21 144 3.2 27.4 0.00 0.00 0.00 38 1004.9
20260504191202 21 65 4.8 27.4 0.00 0.00 0.00 38 1004.9
20260504190658 21 241 4.8 16.1 0.00 0.00 0.00 39 1005.1
20260504190154 21 239 4.8 19.3 0.00 0.00 0.00 38 1005.0
20260504185651 21 108 0.0 9.7 0.00 0.00 0.00 39 1005.0
20260504185148 21 117 6.4 14.5 0.00 0.00 0.00 39 1005.0
20260504184644 21 260 11.3 22.5 0.00 0.00 0.00 36 1005.1
20260504184139 21 48 9.7 24.1 0.00 0.00 0.00 38 1005.1
20260504183636 21 286 8.0 24.1 0.00 0.00 0.00 38 1005.2
20260504183133 21 229 11.3 30.6 0.00 0.00 0.00 37 1005.4
20260504182631 21 267 17.7 32.2 0.00 0.00 0.00 37 1005.5
20260504182128 21 166 6.4 30.6 0.00 0.00 0.00 37 1005.3
20260504181626 21 11 3.2 17.7 0.00 0.00 0.00 39 1005.2
20260504181123 21 309 8.0 16.1 0.00 0.00 0.00 38 1005.3
20260504180622 21 249 14.5 27.4 0.00 0.00 0.00 37 1005.6
20260504180121 21 248 6.4 19.3 0.00 0.00 0.00 38 1005.5
20260504175617 20 246 20.9 20.9 0.00 0.00 0.00 39 1005.5
20260504175114 21 274 16.1 22.5 0.00 0.00 0.00 39 1005.5
20260504174612 21 151 6.4 17.7 0.00 0.00 0.00 40 1005.5
20260504174108 21 251 8.0 14.5 0.00 0.00 0.00 37 1005.5
20260504173605 21 251 3.2 22.5 0.00 0.00 0.00 42 1005.5
20260504173103 21 181 6.4 22.5 0.00 0.00 0.00 40 1005.6
20260504172559 21 258 19.3 22.5 0.00 0.00 0.00 40 1005.8
20260504172056 20 233 16.1 20.9 0.00 0.00 0.00 40 1005.6
20260504171552 20 149 11.3 20.9 0.00 0.00 0.00 40 1005.5
20260504171050 20 265 9.7 25.7 0.00 0.00 0.00 39 1006.0
20260504170545 18 293 9.7 25.7 0.00 0.00 0.00 42 1005.8
20260504150929 17 26 4.8 27.4 0.00 0.00 0.00 43 1007.1
20260504150426 17 203 12.9 12.9 0.00 0.00 0.00 44 1007.1
20260504140852 14 265 8.0 24.1 0.00 0.00 0.00 45 1008.0
20260504140349 15 243 4.8 11.3 0.00 0.00 0.00 47 1008.1
20260504130817 12 268 6.4 9.7 0.00 0.00 0.00 52 1008.7
20260504130314 11 226 3.2 11.3 0.00 0.00 0.00 52 1008.8
20260504120237 7 53 1.6 4.8 0.00 0.00 0.00 86 1009.1
20260504110704 3 58 3.2 4.8 0.00 0.00 0.00 90 1009.4
20260504110201 2 101 3.2 3.2 0.00 0.00 0.00 91 1009.1
20260504100125 0 63 3.2 3.2 0.00 0.00 0.00 98 1009.0
20260504081518 1 88 1.6 3.2 0.00 0.00 0.00 94 1009.1
20260504081013 1 99 3.2 3.2 0.00 0.00 0.00 94 1009.1
20260504080510 1 80 1.6 3.2 0.00 0.00 0.00 94 1009.1
20260504050323 5 110 0.0 1.6 0.00 0.00 0.00 79 1009.1
20260504045820 5 38 0.0 1.6 0.00 0.00 0.00 79 1009.4
20260504045319 6 331 0.0 1.6 0.00 0.00 0.00 79 1009.3
20260504044817 6 21 0.0 3.2 0.00 0.00 0.00 78 1009.4
20260504044314 6 347 0.0 1.6 0.00 0.00 0.00 77 1009.3
20260504043812 6 178 1.6 3.2 0.00 0.00 0.00 77 1009.0
20260504043308 6 304 0.0 1.6 0.00 0.00 0.00 76 1009.1
20260504042806 6 278 3.2 3.2 0.00 0.00 0.00 75 1009.1
20260504042304 6 126 0.0 0.0 0.00 0.00 0.00 76 1009.3
20260504041759 6 102 0.0 3.2 0.00 0.00 0.00 74 1009.3
20260504041255 6 66 0.0 0.0 0.00 0.00 0.00 73 1009.2
20260504040751 6 119 0.0 1.6 0.00 0.00 0.00 74 1009.3
20260504040248 6 132 1.6 3.2 0.00 0.00 0.00 78 1009.1
20260504035744 7 81 0.0 3.2 0.00 0.00 0.00 75 1009.1
20260504035241 7 32 0.0 1.6 0.00 0.00 0.00 71 1009.1
20260504034739 7 76 0.0 1.6 0.00 0.00 0.00 72 1009.2
20260504034236 7 135 0.0 3.2 0.00 0.00 0.00 72 1009.1
20260504033734 7 110 0.0 3.2 0.00 0.00 0.00 72 1009.3
20260504033231 7 166 0.0 1.6 0.00 0.00 0.00 74 1009.3
20260504032728 7 219 0.0 3.2 0.00 0.00 0.00 73 1009.3
20260504032225 7 67 3.2 4.8 0.00 0.00 0.00 74 1009.2
20260504031722 7 340 3.2 3.2 0.00 0.00 0.00 75 1009.3
20260504031219 7 308 0.0 3.2 0.00 0.00 0.00 77 1009.3
20260504030715 7 31 0.0 1.6 0.00 0.00 0.00 75 1009.0
20260504030212 7 65 3.2 4.8 0.00 0.00 0.00 75 1009.1
20260504025709 7 66 1.6 1.6 0.00 0.00 0.00 75 1009.4
20260504025205 7 63 0.0 3.2 0.00 0.00 0.00 75 1009.4
20260504024703 7 106 3.2 4.8 0.00 0.00 0.00 74 1009.2
20260504024159 7 72 3.2 3.2 0.00 0.00 0.00 74 1009.4
20260504023655 7 44 0.0 3.2 0.00 0.00 0.00 74 1009.5
20260504023152 7 93 3.2 4.8 0.00 0.00 0.00 73 1009.5
20260504022648 7 39 4.8 4.8 0.00 0.00 0.00 73 1009.6
20260504022144 7 38 3.2 6.4 0.00 0.00 0.00 71 1009.6
20260504021642 8 64 4.8 4.8 0.00 0.00 0.00 70 1009.7
20260504021138 8 55 0.0 1.6 0.00 0.00 0.00 71 1009.6
20260504020636 8 38 3.2 3.2 0.00 0.00 0.00 70 1009.5
20260504020132 7 72 0.0 3.2 0.00 0.00 0.00 68 1009.5
20260504015628 8 92 3.2 4.8 0.00 0.00 0.00 68 1009.7
20260504015125 7 80 1.6 3.2 0.00 0.00 0.00 70 1009.4
20260504014620 7 77 1.6 3.2 0.00 0.00 0.00 70 1009.5
20260504014118 8 69 3.2 3.2 0.00 0.00 0.00 67 1009.4
20260504013615 8 83 1.6 3.2 0.00 0.00 0.00 66 1009.3
20260504013112 8 93 0.0 1.6 0.00 0.00 0.00 66 1009.4
20260504012609 8 63 0.0 1.6 0.00 0.00 0.00 64 1009.1
20260504012107 8 35 1.6 3.2 0.00 0.00 0.00 63 1009.2
20260504011604 8 50 1.6 3.2 0.00 0.00 0.00 63 1009.2
20260504011100 8 77 1.6 3.2 0.00 0.00 0.00 64 1009.2
20260504010555 8 58 1.6 3.2 0.00 0.00 0.00 61 1009.2
20260504010052 9 37 1.6 3.2 0.00 0.00 0.00 60 1009.1
20260504005549 9 348 0.0 3.2 0.00 0.00 0.00 59 1009.3
20260504005046 9 5 1.6 3.2 0.00 0.00 0.00 59 1008.7
20260504004544 9 333 3.2 4.8 0.00 0.00 0.00 61 1008.8
20260504004041 9 49 3.2 4.8 0.00 0.00 0.00 59 1009.0
20260504003537 10 32 3.2 4.8 0.00 0.00 0.00 62 1009.0
20260504003034 10 65 3.2 3.2 0.00 0.00 0.00 58 1008.9
20260504002531 10 108 3.2 3.2 0.00 0.00 0.00 58 1008.8
20260504002028 10 341 1.6 3.2 0.00 0.00 0.00 58 1008.7
20260504001526 10 86 3.2 4.8 0.00 0.00 0.00 54 1008.6
20260504001022 10 39 3.2 3.2 0.00 0.00 0.00 60 1008.5
20260504000520 10 39 0.0 1.6 0.00 0.00 0.00 56 1008.4
20260504000017 10 15 0.0 3.2 0.00 0.00 0.00 58 1008.3
20260503235515 11 13 0.0 1.6 0.00 0.00 0.00 59 1008.1
20260503235011 11 77 0.0 1.6 0.00 0.00 0.00 53 1008.3
20260503234509 11 58 0.0 1.6 0.00 0.00 0.00 49 1008.3
20260503234007 11 352 0.0 1.6 0.00 0.00 0.00 47 1008.2
20260503233503 12 44 0.0 3.2 0.00 0.00 0.00 46 1008.2
20260503232959 12 227 3.2 3.2 0.00 0.00 0.00 43 1008.1
20260503232456 12 30 3.2 3.2 0.00 0.00 0.00 43 1008.2
20260503231954 12 157 1.6 3.2 0.00 0.00 0.00 43 1007.9
20260503231452 12 215 0.0 6.4 0.00 0.00 0.00 42 1008.2
20260503230948 12 239 6.4 9.7 0.00 0.00 0.00 40 1008.3
20260503230444 12 135 4.8 4.8 0.00 0.00 0.00 44 1008.0
20260503225942 12 82 3.2 6.4 0.00 0.00 0.00 43 1008.2
20260503225439 12 261 1.6 4.8 0.00 0.00 0.00 42 1008.4
20260503224934 13 167 3.2 8.0 0.00 0.00 0.00 42 1008.2
20260503224431 12 225 3.2 6.4 0.00 0.00 0.00 42 1008.5
20260503223929 12 336 3.2 8.0 0.00 0.00 0.00 41 1008.2
20260503223427 12 285 4.8 9.7 0.00 0.00 0.00 41 1008.3
20260503222922 13 32 0.0 4.8 0.00 0.00 0.00 42 1008.2
20260503222421 13 112 3.2 4.8 0.00 0.00 0.00 43 1008.5
20260503221919 12 9 0.0 4.8 0.00 0.00 0.00 45 1008.4
20260503221417 12 110 3.2 4.8 0.00 0.00 0.00 45 1008.4
20260503220913 12 16 6.4 8.0 0.00 0.00 0.00 42 1008.3
20260503220410 13 340 3.2 6.4 0.00 0.00 0.00 40 1008.4
20260503215907 14 320 3.2 4.8 0.00 0.00 0.00 41 1008.4
20260503215404 13 356 3.2 8.0 0.00 0.00 0.00 40 1008.5
20260503214901 13 311 4.8 4.8 0.00 0.00 0.00 40 1008.5
20260503214358 13 296 3.2 9.7 0.00 0.00 0.00 43 1008.6
20260503213856 13 268 9.7 20.9 0.00 0.00 0.00 40 1008.5
20260503213354 13 200 3.2 9.7 0.00 0.00 0.00 40 1008.7
20260503212850 13 299 4.8 9.7 0.00 0.00 0.00 39 1008.5
20260503212348 13 249 4.8 8.0 0.00 0.00 0.00 40 1008.5
20260503211845 13 265 12.9 24.1 0.00 0.00 0.00 40 1008.5
20260503211342 13 115 4.8 8.0 0.00 0.00 0.00 43 1008.6
20260503210837 13 278 9.7 9.7 0.00 0.00 0.00 42 1008.5
20260503210334 13 331 4.8 17.7 0.00 0.00 0.00 41 1008.4
20260503205829 13 136 6.4 9.7 0.00 0.00 0.00 45 1008.5
20260503205326 12 325 0.0 6.4 0.00 0.00 0.00 44 1008.8
20260503204823 12 256 11.3 12.9 0.00 0.00 0.00 45 1008.8
20260503204320 11 70 12.9 22.5 0.00 0.00 0.00 46 1008.9
20260503203817 11 14 8.0 27.4 0.00 0.00 0.00 46 1008.9
20260503203315 12 238 6.4 17.7 0.00 0.00 0.00 42 1008.8
20260503202811 12 299 8.0 29.0 0.00 0.00 0.00 41 1008.6